VK2HN Weather Reports


time (UTC)temp
C
wind
direction
speed
KPH
gust
KPH
rain 1hr
cm
rain 24hr
cm
rain mn
cm
humidity
%
barometer
mb
20260505065042 19 123 1.6 3.2 0.00 0.00 0.00 67 1018.2
20260505064542 20 123 0.0 1.6 0.00 0.00 0.00 66 1018.0
20260505064042 20 123 0.0 0.0 0.00 0.00 0.00 64 1017.9
20260505063542 20 123 1.6 1.6 0.00 0.00 0.00 57 1018.0
20260505063042 21 123 1.6 4.8 0.00 0.00 0.00 58 1017.8
20260505062542 21 107 0.0 1.6 0.00 0.00 0.00 60 1017.9
20260505062042 21 190 0.0 0.0 0.00 0.00 0.00 62 1017.7
20260505061542 21 190 0.0 3.2 0.00 0.00 0.00 58 1017.8
20260505061042 21 190 1.6 3.2 0.00 0.00 0.00 55 1017.7
20260505060542 22 190 1.6 4.8 0.00 0.00 0.00 52 1017.8
20260505060042 22 190 1.6 3.2 0.00 0.00 0.00 53 1017.7
20260505055542 22 190 3.2 4.8 0.00 0.00 0.00 53 1017.6
20260505055042 22 189 1.6 4.8 0.00 0.00 0.00 50 1017.6
20260505054542 22 190 1.6 4.8 0.00 0.00 0.00 49 1017.6
20260505054042 22 190 1.6 4.8 0.00 0.00 0.00 51 1017.6
20260505053542 22 207 3.2 4.8 0.00 0.00 0.00 52 1017.6
20260505053042 22 207 1.6 6.4 0.00 0.00 0.00 49 1017.6
20260505052542 22 175 1.6 4.8 0.00 0.00 0.00 49 1017.6
20260505052042 22 175 1.6 6.4 0.00 0.00 0.00 51 1017.6
20260505051542 22 173 1.6 4.8 0.00 0.00 0.00 49 1017.7
20260505051042 22 166 1.6 4.8 0.00 0.00 0.00 50 1017.6
20260505050542 22 167 3.2 6.4 0.00 0.00 0.00 48 1017.6
20260505041542 24 190 3.2 6.4 0.00 0.00 0.00 45 1017.1
20260505041042 24 182 3.2 6.4 0.00 0.00 0.00 49 1017.1
20260505040542 23 211 3.2 8.0 0.00 0.00 0.00 49 1017.1
20260505040042 23 125 3.2 4.8 0.00 0.00 0.00 51 1017.1
20260505035542 23 119 3.2 4.8 0.00 0.00 0.00 51 1017.0
20260505035042 23 118 3.2 9.7 0.00 0.00 0.00 54 1017.1
20260505034542 23 113 3.2 6.4 0.00 0.00 0.00 51 1017.1
20260505034042 23 257 4.8 6.4 0.00 0.00 0.00 51 1017.1
20260505033542 23 244 4.8 8.0 0.00 0.00 0.00 48 1017.3
20260505033042 23 326 3.2 8.0 0.00 0.00 0.00 51 1017.2
20260505032542 23 223 4.8 6.4 0.00 0.00 0.00 50 1017.3
20260505032042 23 232 4.8 14.5 0.00 0.00 0.00 49 1017.5
20260505031542 23 246 3.2 9.7 0.00 0.00 0.00 52 1017.5
20260505031042 23 220 3.2 8.0 0.00 0.00 0.00 49 1017.6
20260505030542 23 178 3.2 8.0 0.00 0.00 0.00 50 1017.6
20260505030042 23 293 4.8 6.4 0.00 0.00 0.00 52 1017.7
20260505025542 23 273 4.8 14.5 0.00 0.00 0.00 48 1017.7
20260505025042 23 236 3.2 6.4 0.00 0.00 0.00 52 1017.7
20260505024542 23 238 4.8 6.4 0.00 0.00 0.00 51 1018.0
20260505024042 23 284 4.8 11.3 0.00 0.00 0.00 50 1018.0
20260505023542 23 309 3.2 8.0 0.00 0.00 0.00 52 1018.1
20260505023042 22 255 3.2 6.4 0.00 0.00 0.00 55 1018.1
20260505022542 22 260 3.2 8.0 0.00 0.00 0.00 51 1018.3
20260505022042 22 312 4.8 11.3 0.00 0.00 0.00 53 1018.3
20260505021542 22 290 4.8 11.3 0.00 0.00 0.00 55 1018.3
20260505021042 22 294 4.8 9.7 0.00 0.00 0.00 52 1018.5
20260505020542 22 199 3.2 9.7 0.00 0.00 0.00 56 1018.4
20260505020042 22 205 3.2 6.4 0.00 0.00 0.00 53 1018.3
20260505015542 22 207 3.2 9.7 0.00 0.00 0.00 56 1018.4
20260505015042 22 212 3.2 8.0 0.00 0.00 0.00 56 1018.6
20260505014542 21 260 3.2 4.8 0.00 0.00 0.00 61 1018.5
20260505014042 21 266 4.8 12.9 0.00 0.00 0.00 59 1018.6
20260505013542 21 167 4.8 11.3 0.00 0.00 0.00 61 1018.6
20260505013042 21 264 4.8 9.7 0.00 0.00 0.00 61 1018.6
20260505012542 20 288 4.8 8.0 0.00 0.00 0.00 63 1018.9
20260505012042 20 306 3.2 11.3 0.00 0.00 0.00 62 1018.9
20260505011542 20 173 3.2 8.0 0.00 0.00 0.00 60 1018.9
20260505011042 20 303 3.2 8.0 0.00 0.00 0.00 62 1019.0
20260505010542 19 304 3.2 6.4 0.00 0.00 0.00 63 1019.1
20260505010042 19 204 4.8 11.3 0.00 0.00 0.00 64 1019.2
20260505005542 19 263 4.8 11.3 0.00 0.00 0.00 66 1019.3
20260505005042 18 252 4.8 12.9 0.00 0.00 0.00 66 1019.5
20260505004542 18 262 3.2 11.3 0.00 0.00 0.00 68 1019.5
20260505004042 18 195 4.8 14.5 0.00 0.00 0.00 67 1019.8
20260505003542 18 340 4.8 9.7 0.00 0.00 0.00 66 1019.8
20260505003042 18 5 6.4 11.3 0.00 0.00 0.00 65 1019.6
20260505002542 18 0 4.8 12.9 0.00 0.00 0.00 68 1019.7
20260505002042 17 333 3.2 9.7 0.00 0.00 0.00 69 1019.8
20260505001542 17 223 3.2 8.0 0.00 0.00 0.00 69 1019.8
20260505001042 17 267 3.2 4.8 0.00 0.00 0.00 70 1019.8
20260505000542 17 266 3.2 9.7 0.00 0.00 0.00 69 1019.9
20260505000042 17 355 3.2 9.7 0.00 0.00 0.00 71 1019.9
20260504235542 17 315 4.8 12.9 0.00 0.00 0.00 73 1019.9
20260504235042 17 280 4.8 14.5 0.00 0.00 0.00 74 1019.8
20260504234542 16 248 4.8 11.3 0.00 0.00 0.00 77 1020.0
20260504234042 16 282 4.8 9.7 0.00 0.00 0.00 81 1019.8
20260504233542 15 289 4.8 12.9 0.00 0.00 0.00 84 1019.9
20260504233042 15 271 3.2 9.7 0.00 0.00 0.00 89 1020.0
20260504232542 15 266 3.2 12.9 0.00 0.00 0.00 90 1020.1
20260504232042 14 281 1.6 12.9 0.00 0.00 0.00 94 1020.0
20260504231542 14 197 0.0 4.8 0.00 0.00 0.00 97 1020.2
20260504231042 14 154 0.0 0.0 0.00 0.00 0.00 98 1020.3
20260504230542 14 142 0.0 0.0 0.00 0.00 0.00 98 1020.3
20260504230042 14 141 0.0 0.0 0.00 0.00 0.00 98 1020.4
20260504225542 14 141 0.0 0.0 0.00 0.00 0.00 99 1020.2
20260504225042 14 141 0.0 0.0 0.00 0.00 0.00 99 1020.3
20260504224542 14 141 0.0 0.0 0.00 0.00 0.00 99 1020.2
20260504224042 14 141 0.0 0.0 0.00 0.00 0.00 99 1020.2
20260504223542 13 141 0.0 0.0 0.00 0.00 0.00 99 1020.2
20260504223042 13 141 0.0 0.0 0.00 0.00 0.00 99 1020.2
20260504222542 13 141 0.0 0.0 0.00 0.00 0.00 99 1020.0
20260504222042 13 141 0.0 0.0 0.00 0.00 0.00 100 1020.0
20260504221542 13 141 0.0 0.0 0.00 0.00 0.00 100 1020.0
20260504221042 13 141 0.0 0.0 0.00 0.00 0.00 100 1019.9
20260504220542 12 141 0.0 0.0 0.00 0.00 0.00 100 1019.9
20260504220042 12 141 0.0 0.0 0.00 0.00 0.00 100 1019.9
20260504215542 11 141 0.0 0.0 0.00 0.00 0.00 99 1019.9
20260504215042 11 141 0.0 0.0 0.00 0.00 0.00 99 1019.9
20260504214542 10 141 0.0 0.0 0.00 0.00 0.00 99 1019.9
20260504214042 10 141 0.0 0.0 0.00 0.00 0.00 99 1019.9
20260504213543 10 141 0.0 0.0 0.00 0.00 0.00 99 1019.5
20260504213042 10 141 0.0 0.0 0.00 0.00 0.00 99 1019.4
20260504212543 10 141 0.0 0.0 0.00 0.00 0.00 99 1019.5
20260504212043 10 141 0.0 0.0 0.00 0.00 0.00 99 1019.4
20260504211543 10 141 0.0 0.0 0.00 0.00 0.00 98 1019.2
20260504211043 10 141 0.0 0.0 0.00 0.00 0.00 98 1019.1
20260504210543 10 141 0.0 0.0 0.00 0.00 0.00 98 1019.1
20260504210043 10 141 0.0 0.0 0.00 0.00 0.00 98 1018.9
20260504205543 10 141 0.0 0.0 0.00 0.00 0.00 98 1018.9
20260504205043 10 141 0.0 0.0 0.00 0.00 0.00 98 1018.8
20260504204543 10 141 0.0 0.0 0.00 0.00 0.00 98 1018.7
20260504204043 10 141 0.0 0.0 0.00 0.00 0.00 98 1018.7
20260504203543 10 141 0.0 0.0 0.00 0.00 0.00 98 1018.6
20260504203043 10 141 0.0 0.0 0.00 0.00 0.00 98 1018.5
20260504202543 10 141 0.0 0.0 0.00 0.00 0.00 98 1018.3
20260504202043 10 141 0.0 0.0 0.00 0.00 0.00 98 1018.4
20260504201543 10 141 0.0 0.0 0.00 0.00 0.00 98 1018.4
20260504201043 11 141 0.0 0.0 0.00 0.00 0.00 98 1018.3
20260504200543 11 141 0.0 0.0 0.00 0.00 0.00 98 1018.3
20260504200043 11 141 0.0 0.0 0.00 0.00 0.00 98 1018.2
20260504195543 11 141 0.0 0.0 0.00 0.00 0.00 98 1018.1
20260504195043 11 141 0.0 0.0 0.00 0.00 0.00 98 1018.2
20260504194543 11 141 0.0 0.0 0.00 0.00 0.00 98 1017.9
20260504194043 11 141 0.0 0.0 0.00 0.00 0.00 98 1017.9
20260504193543 11 141 0.0 0.0 0.00 0.00 0.00 98 1017.7
20260504193043 11 141 0.0 0.0 0.00 0.00 0.00 98 1017.8
20260504192543 11 141 0.0 0.0 0.00 0.00 0.00 98 1017.7
20260504192043 11 141 0.0 0.0 0.00 0.00 0.00 98 1017.8
20260504191543 12 141 0.0 0.0 0.00 0.00 0.00 98 1017.8
20260504191043 12 141 0.0 0.0 0.00 0.00 0.00 98 1017.6
20260504190543 12 141 0.0 0.0 0.00 0.00 0.00 98 1017.5
20260504190043 12 141 0.0 0.0 0.00 0.00 0.00 98 1017.6
20260504185543 12 141 0.0 0.0 0.00 0.00 0.00 98 1017.7
20260504185043 12 141 0.0 0.0 0.00 0.00 0.00 98 1017.6
20260504184543 12 141 0.0 0.0 0.00 0.00 0.00 98 1017.6
20260504184043 12 141 0.0 0.0 0.00 0.00 0.00 98 1017.6
20260504183543 13 141 0.0 0.0 0.00 0.00 0.00 98 1017.5
20260504183043 13 141 0.0 0.0 0.00 0.00 0.00 98 1017.3
20260504182543 13 141 0.0 0.0 0.00 0.00 0.00 98 1017.4
20260504182043 13 141 0.0 0.0 0.00 0.00 0.00 98 1017.3
20260504181543 13 141 0.0 0.0 0.00 0.00 0.00 98 1017.0
20260504181043 13 141 0.0 0.0 0.00 0.00 0.00 98 1017.0
20260504180543 13 141 0.0 0.0 0.00 0.00 0.00 98 1017.0
20260504180043 13 141 0.0 0.0 0.00 0.00 0.00 98 1016.9
20260504175543 13 141 0.0 0.0 0.00 0.00 0.00 98 1017.1
20260504175043 14 141 0.0 1.6 0.00 0.00 0.00 98 1017.0
20260504174543 14 141 0.0 0.0 0.00 0.00 0.00 98 1017.1
20260504174043 14 141 0.0 0.0 0.00 0.00 0.00 98 1017.0
20260504173543 14 141 0.0 0.0 0.00 0.00 0.00 98 1017.0
20260504173043 14 141 0.0 0.0 0.00 0.00 0.00 98 1016.8
20260504172543 14 141 0.0 0.0 0.00 0.00 0.00 98 1017.0
20260504172043 14 141 0.0 0.0 0.00 0.00 0.00 98 1017.0
20260504171543 14 141 0.0 0.0 0.00 0.00 0.00 98 1017.0
20260504171043 14 141 0.0 0.0 0.00 0.00 0.00 98 1017.0
20260504170543 14 141 0.0 0.0 0.00 0.00 0.00 98 1017.0
20260504151043 16 141 0.0 0.0 0.00 0.00 0.00 97 1017.0
20260504150543 16 141 0.0 0.0 0.00 0.00 0.00 97 1016.7
20260504141043 17 142 0.0 0.0 0.00 0.00 0.00 96 1016.9
20260504140543 17 142 0.0 0.0 0.00 0.00 0.00 96 1016.7
20260504130543 16 142 1.6 3.2 0.00 0.00 0.00 96 1016.9
20260504110544 17 104 0.0 0.0 0.00 0.00 0.00 92 1016.1
20260504100544 17 102 0.0 0.0 0.00 0.00 0.00 91 1015.4
20260504081544 18 71 0.0 0.0 0.00 0.00 0.00 95 1015.3
20260504081044 18 71 0.0 0.0 0.00 0.00 0.00 95 1015.2
20260504080544 18 71 0.0 0.0 0.00 0.00 0.00 95 1015.3